Flag for U.S.A. Weather past 2 weeks in Evansville, Indiana, U.S.A.

Now
73 °F

Sunny.


Feels Like: 77 °F
Forecast: 46 / 73 °F
Wind: 7 mph from North

Location: Evansville Regional Airport

Current Time: Sep 23, 2014 at 3:40:45 PM

Latest Report: Sep 23, 2014 at 2:54 PM


Visibility: 10 mi

Pressure: 30.27 "Hg

Humidity: 36%

Dew point: 44 °F

Location of EvansvilleLocation

Historic Weather in Evansville — Graph

°F

Evansville temperature yesterday

Maximum temperature yesterday: 72 °F (at 3:54 PM)
Minimum temperature yesterday: 52 °F (at 11:54 PM)
Average temperature yesterday: 61 °F

Past Weeks' High & Low Weather Summary

 TemperatureHumidityPressure
High85 °F (Sep 10, 3:54 PM)93% (Sep 9, 4:54 AM)30.35 "Hg (Sep 9, 4:54 AM)
Low46 °F (Sep 17, 6:54 AM)32% (Sep 8, 2:54 PM)29.74 "Hg (Sep 10, 5:54 PM)
Average65 °F71%30.09 "Hg
* Reported Sep 8 1:54 PM — Sep 23 1:54 PM, Evansville, Weather by CustomWeather, © 2014

Note: Actual official high and low records may vary slightly from our data, if they occured in-between our weather recording intervals... More about our weather records

Advertising

Evansville weather history for previous 24 hours

 ConditionsComfort  
Time TempWeatherWind HumidityBarometerVisibility
1:54 PM
Sep 23
73 °FSunny.7 mph36%30.29 "Hg10 mi
12:54 PM71 °FSunny.N/A39%30.31 "Hg10 mi
11:54 AM70 °FSunny.6 mph39%30.33 "Hg10 mi
10:54 AM66 °FSunny.6 mph47%30.33 "Hg10 mi
9:54 AM62 °FSunny.7 mph58%30.33 "Hg10 mi
8:54 AM57 °FSunny.6 mph72%30.33 "Hg10 mi
7:54 AM53 °FSunny.3 mph83%30.32 "Hg10 mi
6:54 AM46 °FSunny.3 mph93%30.31 "Hg10 mi
5:54 AM47 °FClear.No wind90%30.29 "Hg10 mi
4:54 AM48 °FClear.No wind89%30.29 "Hg10 mi
3:54 AM49 °FClear.No wind90%30.28 "Hg10 mi
2:54 AM50 °FClear.No wind89%30.27 "Hg10 mi
1:54 AM50 °FClear.No wind89%30.27 "Hg10 mi
12:54 AM50 °FClear.No wind89%30.27 "Hg10 mi
11:54 PM
Sep 22
52 °FClear.No wind86%30.26 "Hg10 mi
10:54 PM54 °FClear.No wind80%30.26 "Hg10 mi
9:54 PM57 °FClear.No wind72%30.26 "Hg10 mi
8:54 PM58 °FClear.3 mph70%30.25 "Hg10 mi
7:54 PM60 °FClear.No wind67%30.24 "Hg10 mi
6:54 PM63 °FClear.3 mph56%30.22 "Hg10 mi
5:54 PM70 °FSunny.9 mph39%30.22 "Hg10 mi
4:54 PM71 °FSunny.10 mph35%30.21 "Hg10 mi
3:54 PM72 °FSunny.13 mph37%30.21 "Hg10 mi
Weather by CustomWeather, © 2014

See weather overviewHow to use our weather pages